Location: Staunton
(38.1490°N, 79.0720°W)
Time: 23:40:50
(UTC-05:00)

ISS - Pass Details

Date: 18 January 2021
Orbit: 418 x 421 km, 51.6° (Epoch: 23 January)

Event Time Altitude Azimuth Distance (km) Brightness Sun altitude
Rises 18:47:39 0° 227° (SW) 2,354 1.1 -16.3°
Reaches altitude 10° 18:49:44 10° 227° (SW) 1,494 -0.1 -16.7°
Maximum altitude 18:53:06 82° 140° (SE) 428 -3.9 -17.4°
Enters shadow 18:53:50 51° 60° (ENE) 534 -3.7 -17.5°
